Weather in Novotroitskaya

Russia / Stavropol Krai     45°21′49″N   41°31′48″E
temp.,
°C
wind,
m/s
gust,
m/s
humid.,
%
clouds,
%
prec.,
mm/h
press.,
hPa
HPBL,
m
8 march, mon
mon800:00−3sw48649 0.0 1022207
03:00−3sw36754 0.0 1022171
06:00−3ssw48750 0.0 1021233
09:000sw56590 0.0 1020556
12:00+3wsw58500 0.0 10191285
15:00+4wsw58520 0.0 10171479
18:00+1wsw367232 0.0 1017113
21:00−1ssw468652 0.0 1018137
9 march, tue
tue900:00−2ssw378943 0.0 1017154
03:00−1sw398548 0.0 1017311
06:00−1sw41279100 0.0 1016472
09:00+2wsw61169100 0.0 10171012
12:00+4w8136986 0.1 10161502
15:00+1w7119693 1.9 1016622
18:00+1w5993100 1.9 1018488
21:000w4994100 2.2 1020416
10 march, wed
wed1000:00−3wsw368096 0.0 1021173
03:00−3wsw378391 0.0 1022196
06:00−3wsw348598 0.0 1024154
09:00−1w356783 0.0 1024828
12:00+1nw3451100 0.0 10231296
15:00+2n3348100 0.0 10221275
18:00−1ene3666100 0.0 1021196
21:00−1ene4868100 0.0 1022400
11 march, thu
thu1100:00−2ene5965100 0.0 1021615
03:00−2ene61077100 0.2 1021675
06:00−4ene71188100 0.6 1021619
09:00−3ene81180100 0.9 1022795
12:00−2ene81164100 0.2 10211010
15:00−1ene81046100 0.3 10221355
18:00−3e6952100 0.0 10241225
21:00−4e4762100 0.0 1026922
12 march, fri
fri1200:00−5e47606 0.0 1028776
03:00−6e47583 0.0 1029705
06:00−7e58560 0.0 1030594
09:00−5ese68530 0.0 1030707
12:00−3ese67530 0.0 1028896
15:00−1ese67540 0.0 1027893
18:00−5ese58650 0.0 1029727
21:00−6ese611640 0.0 1031551